Total_Precipitation_Accumulation
1.81 1.77 2.89 2.99 2.75 2.46 2.31 2.36 2.52 2.69 2.84 2.95 2.75 2.55 2.39 2.42 2.56 2.65 2.75 2.61 2.51 2.47 2.51 2.56 2.66 2.66 2.50 2.24 2.31 2.63 2.98 3.04 2.84 2.83 3.11 3.19 3.44 3.56 3.66 3.60 3.46 3.37 3.46
1.40 1.63 2.72 2.78 2.54 2.33 2.29 2.42 2.41 2.50 2.64 2.74 2.79 2.61 2.50 2.53 2.65 2.70 2.73 2.60 2.48 2.40 2.43 2.58 2.70 2.59 2.40 2.26 2.38 2.72 2.94 2.95 2.88 3.05 3.53 3.69 3.78 3.86 3.78 3.55 3.46 3.48 3.54
1.16 1.38 2.06 2.56 2.46 2.28 2.26 2.28 2.35 2.47 2.54 2.50 2.61 2.64 2.56 2.77 2.88 2.84 2.81 2.68 2.60 2.48 2.50 2.51 2.51 2.54 2.31 2.37 2.61 2.69 2.61 2.67 2.90 3.07 3.58 4.03 3.71 3.79 3.83 3.74 3.54 3.58 3.56
0.98 1.20 1.79 2.59 2.51 2.39 2.44 2.49 2.57 2.60 2.40 2.28 2.30 2.33 2.43 2.68 2.86 2.93 2.95 2.80 2.80 2.74 2.59 2.39 2.30 2.46 2.39 2.44 2.65 2.60 2.51 2.65 2.91 2.93 3.22 3.78 3.70 3.87 4.14 4.15 3.91 3.78 3.84
1.02 1.17 1.89 2.67 2.47 2.40 2.47 2.63 2.57 2.47 2.43 2.37 2.36 2.44 2.47 2.66 2.83 2.90 2.87 2.84 2.88 2.84 2.71 2.57 2.41 2.51 2.49 2.50 2.53 2.58 2.65 2.75 2.88 2.56 2.85 3.46 4.24 4.47 3.94 4.10 4.13 3.94 3.73
0.92 1.09 1.72 2.55 2.43 2.38 2.42 2.62 2.46 2.35 2.51 2.54 2.48 2.51 2.60 2.86 3.10 3.04 2.93 3.05 2.96 2.89 2.72 2.70 2.58 2.57 2.52 2.50 2.51 2.62 2.77 2.81 2.48 2.42 2.81 3.30 4.02 4.46 3.75 3.65 3.75 3.79 3.71
0.93 1.04 1.45 2.25 2.32 2.32 2.40 2.50 2.40 2.44 2.61 2.49 2.43 2.49 2.65 2.83 3.05 3.10 3.00 3.07 3.08 3.13 3.02 2.88 2.77 2.63 2.53 2.55 2.52 2.61 2.76 2.55 2.11 2.42 2.71 3.25 3.68 3.98 3.54 3.37 3.47 3.71 4.06
1.04 0.99 1.18 1.88 2.07 2.13 2.36 2.39 2.36 2.38 2.46 2.38 2.41 2.50 2.62 2.73 2.84 2.90 2.86 2.96 3.01 3.05 3.04 2.85 2.72 2.61 2.61 2.57 2.70 2.81 2.74 2.23 1.78 2.13 2.58 3.24 3.99 4.03 3.53 3.26 3.35 3.64 4.05
1.41 1.24 1.25 1.40 1.52 1.88 2.29 2.34 2.39 2.38 2.23 2.18 2.23 2.28 2.32 2.36 2.52 2.57 2.60 2.82 2.98 3.09 3.00 2.76 2.70 2.80 2.99 2.84 2.74 2.76 2.59 2.14 1.87 2.07 2.04 3.10 4.10 3.99 3.52 3.25 3.25 3.43 3.68
1.43 1.40 1.34 1.34 1.36 1.68 1.89 2.18 2.43 2.46 2.28 2.08 2.03 2.01 2.08 2.08 2.18 2.32 2.31 2.69 3.09 3.35 3.18 2.94 2.81 2.73 2.78 2.71 2.57 2.48 2.28 1.85 1.59 1.71 2.18 3.05 4.00 3.99 3.65 3.31 3.14 3.02 3.18
1.38 1.42 1.34 1.33 1.44 1.74 1.87 1.92 2.25 2.41 2.35 1.90 1.64 1.66 1.64 1.62 1.76 1.95 2.01 2.57 2.85 3.13 3.13 2.95 2.69 2.55 2.44 2.37 2.33 2.18 1.76 1.53 1.51 1.72 2.28 3.50 4.16 4.25 3.84 3.43 3.16 2.89 2.74
1.18 1.22 1.24 1.24 1.29 1.47 1.61 1.99 2.16 1.94 1.98 1.63 1.51 1.48 1.47 1.57 1.68 1.55 1.81 2.36 2.62 2.86 2.93 2.79 2.62 2.31 1.99 1.80 1.76 1.72 1.54 1.39 1.42 1.66 2.50 3.82 4.47 4.66 4.12 3.53 3.01 2.74 2.70
1.03 0.96 0.92 1.00 1.04 1.18 1.40 1.54 1.77 1.98 1.96 1.89 1.76 1.64 1.67 1.54 1.44 1.49 1.67 1.85 2.09 2.24 2.28 2.34 2.26 1.94 1.72 1.65 1.63 1.49 1.42 1.26 1.42 1.66 2.59 3.65 4.30 4.67 4.41 3.79 3.12 2.91 2.94
1.09 1.06 0.89 0.85 0.91 1.04 1.14 1.25 1.45 1.63 1.71 1.71 1.61 1.46 1.64 1.62 1.50 1.53 1.72 1.83 1.87 2.03 2.30 2.37 2.30 1.99 1.75 1.58 1.53 1.41 1.32 1.26 1.34 1.54 2.34 3.06 3.73 4.22 4.37 4.05 3.50 3.09 2.96
1.16 1.16 1.01 0.83 0.87 1.02 1.12 1.15 1.14 1.36 1.48 1.50 1.61 1.50 1.49 1.52 1.44 1.37 1.46 1.71 1.81 1.90 2.15 2.26 2.12 2.03 1.97 1.86 1.72 1.57 1.48 1.39 1.38 1.38 1.82 2.38 2.96 3.66 4.21 4.23 3.85 3.31 3.05
1.02 1.06 0.99 0.89 0.93 1.02 1.01 0.99 0.98 1.03 1.22 1.23 1.23 1.15 1.29 1.46 1.44 1.42 1.35 1.50 1.81 1.94 2.03 2.04 1.95 1.97 1.97 1.90 1.76 1.70 1.65 1.44 1.53 1.52 1.62 1.72 2.01 2.54 3.40 4.04 3.94 3.49 3.20
0.88 0.94 0.96 0.96 0.97 1.00 1.03 1.05 1.02 1.10 1.15 1.21 1.19 1.12 1.21 1.34 1.40 1.36 1.28 1.39 1.67 1.91 1.99 2.00 1.91 1.98 1.89 1.74 1.77 1.77 1.73 1.60 1.64 1.69 1.66 1.64 1.56 1.85 2.54 3.36 3.65 3.59 3.49
0.70 0.78 0.88 0.86 0.94 0.99 1.03 1.12 1.13 1.22 1.25 1.26 1.29 1.19 1.17 1.28 1.38 1.49 1.44 1.38 1.59 1.86 2.13 2.30 2.15 2.09 2.02 1.90 1.92 1.87 1.73 1.76 1.72 1.71 1.67 1.68 1.70 1.58 1.80 2.22 2.75 3.29 3.57
0.59 0.60 0.70 0.80 0.88 0.94 1.01 1.12 1.09 1.15 1.38 1.46 1.37 1.29 1.36 1.38 1.36 1.56 1.67 1.59 1.67 1.92 2.06 2.14 2.17 2.06 2.04 1.97 1.81 1.77 1.69 1.75 1.80 1.64 1.62 1.64 1.72 1.70 1.64 1.49 1.75 2.31 2.94
0.56 0.56 0.60 0.72 0.78 0.81 0.94 1.10 1.20 1.16 1.25 1.49 1.54 1.55 1.61 1.65 1.62 1.70 1.80 1.82 1.85 2.01 2.04 2.22 2.45 2.29 2.08 2.02 1.82 1.72 1.67 1.69 1.71 1.69 1.74 1.74 1.75 1.72 1.69 1.53 1.49 1.49 1.94
0.53 0.51 0.59 0.68 0.76 0.76 0.88 1.00 1.10 1.20 1.35 1.56 1.63 1.69 1.81 1.87 1.88 1.97 2.05 2.12 2.07 2.01 2.10 2.31 2.73 2.69 2.35 2.10 2.08 1.97 1.82 1.76 1.78 1.72 1.83 1.90 1.80 1.75 1.80 1.73 1.61 1.48 1.41
0.48 0.49 0.55 0.66 0.78 0.84 0.91 1.04 1.21 1.46 1.51 1.66 1.87 1.86 1.85 1.90 1.95 2.01 2.21 2.34 2.30 2.30 2.38 2.44 2.73 2.95 2.71 2.49 2.50 2.70 2.48 2.26 1.88 1.57 1.60 1.67 1.72 1.76 1.75 1.77 1.69 1.57 1.54
0.45 0.55 0.63 0.75 0.94 1.13 1.24 1.47 1.80 2.05 2.08 2.00 2.03 2.10 2.09 2.09 2.14 2.09 2.17 2.36 2.38 2.39 2.47 2.65 2.94 3.31 3.34 3.01 2.74 2.97 2.76 2.47 2.35 1.82 1.49 1.50 1.62 1.74 1.76 1.83 1.79 1.66 1.61
0.46 0.62 0.84 1.08 1.39 1.60 1.73 1.91 2.17 2.30 2.34 2.22 2.19 2.22 2.26 2.17 2.10 2.11 2.16 2.30 2.47 2.63 2.78 2.80 2.75 3.22 3.61 3.43 3.16 2.75 2.46 2.33 2.47 2.34 1.86 1.52 1.54 1.58 1.65 1.66 1.77 1.86 1.80
0.70 0.94 1.31 1.61 1.86 2.00 2.03 2.09 2.34 2.47 2.61 2.61 2.46 2.32 2.28 2.27 2.23 2.15 2.13 2.14 2.16 2.29 2.46 2.60 2.65 2.92 3.21 3.44 3.40 3.15 2.83 2.63 2.16 2.16 2.24 1.99 1.70 1.45 1.42 1.56 1.75 1.84 1.84
1.14 1.38 1.63 1.79 1.97 2.01 1.99 2.00 2.12 2.32 2.48 2.47 2.46 2.42 2.35 2.28 2.20 2.08 2.00 2.05 2.04 2.03 2.17 2.31 2.45 2.74 2.94 3.11 3.20 3.11 3.02 2.94 2.61 2.31 2.11 2.06 1.92 1.66 1.48 1.48 1.56 1.64 1.72